User: anonymous   Login
Location: Centerville
(32.8776°N, 96.6203°W)
Time: 03:28:44
(UTC+00:00)
Language:

Centaur AC-125 - Orbit

View from above orbital plane
View from above orbital plane
View from above satellite
View from above satellite

Ground track
Ground track

The orbit data is extracted from the following two-line orbital elements,

1 23968U 96042B   21264.34210518  .00000251  00000-0  36242-3 0  9996
2 23968  26.7174 166.5300 6402768 177.7209 188.0429  3.39326925298018
Epoch (UTC): 21 September 2021 08:12:37
Eccentricity: 0.6402768
inclination: 26.7174°
perigee height: 351 km
apogee height: 24305 km
right ascension of ascending node: 166.5300°
argument of perigee: 177.7209°
revolutions per day: 3.39326925
mean anomaly at epoch: 188.0429°
orbit number at epoch: 29801

The dashed part of the orbit path shows where the satellite is in the earth's shadow,  

DLR